Flag for United Kingdom Weather past 2 weeks in Bristol, England, United Kingdom

Now
57 °F

Broken clouds.


Feels Like: 55 °F
Forecast: 47 / 58 °F
Wind: 9 mph from Southwest

Location: Bristol / Lulsgate

Current Time: Oct 24, 2014 at 1:47:14 PM

Latest Report: Oct 24, 2014 at 12:50 PM


Visibility: N/A

Pressure: 29.92 "Hg

Humidity: 100%

Dew point: 57 °F

Location of BristolLocation

Historic Weather in Bristol — Graph

°F

Bristol temperature yesterday

Maximum temperature yesterday: 59 °F (at 2:20 PM)
Minimum temperature yesterday: 50 °F (at 5:50 AM)
Average temperature yesterday: 55 °F

Past Weeks' High & Low Weather Summary

 TemperatureHumidityPressure
High63 °F (Oct 17, 12:50 PM)100% (Oct 11, 4:20 AM)30.33 "Hg (Oct 11, 4:20 AM)
Low41 °F (Oct 12, 7:50 AM)59% (Oct 10, 1:50 PM)29.42 "Hg (Oct 9, 12:20 PM)
Average53 °F89%29.81 "Hg
* Reported Oct 9 12:20 PM — Oct 24 12:50 PM, Bristol, Weather by CustomWeather, © 2014

Note: Actual official high and low records may vary slightly from our data, if they occured in-between our weather recording intervals... More about our weather records

Advertising

Bristol weather history for previous 24 hours

 ConditionsComfort  
Time TempWeatherWind HumidityBarometerVisibility
12:50 PM
Oct 24
57 °FBroken clouds.9 mph100%29.92 "HgN/A
12:20 PM57 °FScattered showers. Partly sunny.9 mph94%29.95 "HgN/A
11:50 AM57 °FScattered showers. Partly sunny.8 mph94%29.95 "Hg6 mi
11:20 AM57 °FDrizzle. Partly sunny.9 mph94%29.95 "Hg4 mi
10:50 AM55 °FDrizzle. Fog.7 mph100%29.95 "Hg3 mi
10:20 AM57 °FDrizzle. Partly sunny.9 mph94%29.95 "Hg4 mi
9:50 AM55 °FScattered showers. Partly sunny.8 mph100%29.95 "HgN/A
9:20 AM55 °FScattered showers. Scattered clouds.9 mph94%29.95 "HgN/A
8:50 AM55 °FScattered clouds.9 mph94%29.95 "HgN/A
8:20 AM55 °FPassing clouds.8 mph94%29.95 "HgN/A
7:50 AM55 °FPassing clouds.10 mph94%29.95 "HgN/A
7:20 AM55 °FPassing clouds.10 mph94%29.95 "HgN/A
6:50 AM54 °FPassing clouds.8 mph100%29.95 "HgN/A
6:20 AM54 °FPassing clouds.8 mph94%29.95 "HgN/A
5:50 AM55 °FMostly cloudy.8 mph94%29.95 "HgN/A
5:20 AM55 °FPartly cloudy.9 mph94%29.95 "Hg5 mi
4:50 AM55 °FPartly cloudy.9 mph94%29.95 "HgN/A
4:20 AM55 °FLow clouds.9 mph94%29.95 "HgN/A
3:50 AM55 °FOvercast.9 mph94%29.95 "HgN/A
3:20 AM55 °FFog.8 mph94%29.98 "Hg3 mi
2:50 AM55 °FLow clouds.9 mph94%29.98 "HgN/A
2:20 AM55 °FMostly cloudy.12 mph94%29.98 "Hg4 mi
1:50 AM55 °FPartly cloudy.10 mph94%29.98 "HgN/A
1:20 AM55 °FPassing clouds.10 mph94%29.98 "HgN/A
12:50 AM55 °FPassing clouds.10 mph94%30.01 "HgN/A
12:20 AM55 °FPassing clouds.9 mph94%30.01 "HgN/A
11:50 PM
Oct 23
55 °FRain. Fog.13 mph94%30.01 "Hg1 mi
11:20 PM55 °FPartly cloudy.12 mph94%30.01 "HgN/A
10:50 PM55 °FPassing clouds.12 mph94%30.01 "HgN/A
10:20 PM55 °FPassing clouds.10 mph94%30.01 "HgN/A
9:50 PM55 °FPassing clouds.12 mph94%30.01 "HgN/A
9:20 PM55 °FPassing clouds.10 mph94%30.01 "HgN/A
8:50 PM55 °FPartly cloudy.9 mph100%30.04 "HgN/A
8:20 PM55 °FPartly cloudy.9 mph100%30.01 "HgN/A
7:50 PM55 °FPartly cloudy.8 mph100%30.01 "HgN/A
7:20 PM55 °FPartly cloudy.7 mph100%30.04 "Hg6 mi
6:50 PM57 °FDrizzle. Fog.7 mph94%30.04 "Hg1 mi
6:20 PM57 °FScattered showers. Partly sunny.9 mph94%30.01 "Hg3 mi
5:50 PM57 °FDrizzle. Fog.12 mph94%30.01 "Hg3 mi
5:20 PM57 °FDrizzle. Broken clouds.10 mph94%30.01 "HgN/A
4:50 PM57 °FBroken clouds.10 mph94%30.04 "HgN/A
4:20 PM57 °FDrizzle. Partly sunny.10 mph94%30.04 "Hg3 mi
3:50 PM59 °FScattered showers. Scattered clouds.13 mph88%30.04 "HgN/A
3:20 PM59 °FScattered clouds.12 mph88%30.04 "HgN/A
2:50 PM59 °FPartly sunny.12 mph82%30.04 "HgN/A
2:20 PM59 °FPartly sunny.9 mph82%30.07 "HgN/A
1:50 PM57 °FPartly sunny.9 mph88%30.07 "HgN/A
1:20 PM57 °FBroken clouds.12 mph88%30.07 "HgN/A
Weather by CustomWeather, © 2014

See weather overviewHow to use our weather pages